[[{"header":{"parameterUnit":"m.s-1","parameterCategory":1,"la1":30.2991,"la2":30.254,"lo1":-89.0895,"lo2":-89.0444,"dy":0.0017,"dx":0.0017,"nx":28,"ny":28,"refTime":"2023-10-16T09:00:00:Z","depth":0,"parameterNumber":2,"parameterNumberName":"U-component_of_WINDS"},"data":[0,0,0,0,0,0,0,0,0,0,0,0,0,0,0,0,0,0,0,0,0,0,0,0,0,0,0,0,0,0,0,0,0,0,0,0,0,0,0,0,0,0,0,0,0,0,0,0,0,0,0,0,0,0,0,0,0,0,1.0204,1.0202,0,1.0056,1.0054,1.0053,0.9919,0.9918,0.9916,0.9915,0.976,0.9758,0.9755,0,0,0,0,0,0,0,0,0,0,0,0,0,1.0368,1.0366,1.0204,1.0202,1.02,1.0056,1.0054,1.0052,0.992,0.9918,0.9916,0.9914,0.9761,0.9758,0.9755,0,0,0,0,0,0,0,0,0,0,0,0,0,1.0266,1.0365,1.0204,1.0117,1.0108,1.0057,1.0054,1.0052,0.992,0.9918,0.9915,0.9913,0.9762,0.9758,0.9754,0.9777,0,0,0.9742,0.9741,0,0,0,0,0,0,0,0,1.0272,1.026,1.0132,1.0123,1.0112,1.0004,1.0055,0.996,0.9921,0.9991,0.9915,0.9912,0.9843,0.9832,0.981,0.977,0.9763,0.9742,0.974,0.9738,0.9737,0,0,0,0,0,0,0,1.0279,1.0266,1.0145,1.013,1.0118,1.0084,1.0067,1.0036,0.9932,0.9985,0.9975,0.9959,0.9837,0.9814,0.9805,0.9761,0.9742,0.9739,0.9736,0.9735,0.973,0.9732,0,0,0,0,0,0,1.03,1.0273,1.015,1.0141,1.0188,1.0083,1.0064,1.0041,0.9932,0.9913,0.9961,0.9954,0.9822,0.981,0.9799,0.9816,0.9738,0.9734,0.9732,0.9728,0.9731,0.9733,0,0,0,0,0,0,1.0304,1.0291,1.0156,1.0204,1.0184,1.0082,1.0058,1.0039,1.0015,0.9914,0.9895,0.9957,0.9819,0.9805,0.9783,0.9809,0.9732,0.9729,0.9725,0.9729,0.9732,0.9853,0,0,0,0,0,0,1.031,1.0293,1.0301,1.0205,1.0182,1.0144,1.006,1.0038,1.0009,0.9998,0.9905,0.9887,0.9816,0.979,0.9779,0.9802,0.9726,0.9722,0.9727,0.9731,0.9846,0.986,0.9872,0,0,0,0,0,1.0316,1.0341,1.0302,1.0288,1.0191,1.0146,1.0132,1.0051,1.0012,1.0019,0.9954,0.989,0.9809,0.9789,0.9776,0.9798,0.972,0.9726,0.973,0.984,0.9857,0.9872,0,0,0,0,0,0,1.0442,1.0327,1.0283,1.0278,1.0223,1.0124,1.013,1.0072,1.0026,1.0017,0.9918,0.9898,0.9887,0.984,0.9821,0.9813,0.9756,0.9759,0.9844,0.9859,0.9872,0.9882,0.9722,0,0,0,0,0,1.047,1.0444,1.0344,1.035,1.0324,1.0233,1.021,1.0152,1.009,1.0066,0.9999,0.9941,0.9902,0.9878,0.9837,0.984,0.9816,0.9848,0.9861,0.9872,0.9875,0.9871,0.9883,0.975,0.975,0.975,0,0,1.0526,1.046,1.0449,1.0373,1.0324,1.0298,1.0213,1.019,1.0169,1.0062,1.0037,0.9987,0.9915,0.9905,0.9898,0.9866,0.9907,0.9879,0.9889,0.9885,0.9877,0.989,0.9901,0.9753,0.9753,0.9752,0,0,1.0614,1.0563,1.056,1.0513,1.0439,1.0378,1.0378,1.0287,1.0249,1.0223,1.0142,1.0115,1.0051,1.0002,0.9969,1.0039,0.9978,1.0029,1.0095,1.0092,1.0103,1.0111,1.0134,1.0144,1.0032,1.0033,1.0033,0,1.0693,1.0651,1.0566,1.0547,1.0515,1.0419,1.0414,1.0372,1.0289,1.0268,1.0234,1.015,1.0095,1.0072,1.0089,1.0066,1.0061,1.0038,1.0108,1.0116,1.0123,1.0144,1.0153,1.0039,1.0038,1.0038,1.0037,0,1.075,1.0723,1.073,1.0652,1.0621,1.061,1.0522,1.0501,1.0446,1.0388,1.0362,1.0293,1.0235,1.0225,1.0172,1.0194,1.0176,1.0127,1.0067,1.0144,1.0161,1.0169,1.0048,1.0046,1.0044,1.0042,0,0,1.0913,1.0789,1.0792,1.0755,1.0667,1.0643,1.0627,1.0571,1.0554,1.05,1.0482,1.043,1.0383,1.0346,1.0286,1.0284,1.0341,1.0234,1.0231,1.0255,1.0358,1.0395,1.0405,1.0301,1.0302,1.0303,1.0364,0,1.0985,1.0951,1.0874,1.0863,1.0835,1.0743,1.0729,1.0672,1.0618,1.0585,1.0524,1.0488,1.0431,1.0407,1.0401,1.0336,1.036,1.033,1.0281,1.0281,1.03,1.0415,1.0453,1.0513,1.037,1.0371,1.0372,0,1.1064,1.1016,1.1003,1.0915,1.09,1.0889,1.083,1.0802,1.0735,1.0695,1.0654,1.0588,1.0564,1.0511,1.0475,1.0457,1.0432,1.0397,1.0397,1.0388,1.033,1.0406,1.0531,1.0539,1.0383,1.0382,1.0381,0,1.118,1.1113,1.1095,1.1067,1.0965,1.0958,1.0915,1.0847,1.0818,1.0767,1.0746,1.0694,1.0664,1.0624,1.0545,1.0514,1.0518,1.0458,1.0482,1.0484,1.0485,1.0486,1.0606,1.0474,1.0474,1.0473,1.0473,0,1.1267,1.1262,1.1146,1.1136,1.1127,1.1038,1.1032,1.098,1.092,1.0896,1.0813,1.0793,1.069,1.0658,1.0596,1.0574,1.0562,1.0528,1.0511,1.0534,1.0538,1.0515,1.0508,1.0476,1.0475,1.0475,1.0474,0,1.1395,1.1318,1.1293,1.1198,1.1174,1.1172,1.109,1.1075,1.1016,1.0987,1.0975,1.0882,1.0839,1.0757,1.069,1.0649,1.064,1.0612,1.0663,1.0652,1.068,1.0678,1.0787,1.0796,1.0662,1.0663,1.0665,0,1.1455,1.1449,1.1354,1.1333,1.1293,1.126,1.123,1.1142,1.1114,1.1038,1.1032,1.0983,1.0938,1.0874,1.0799,1.0748,1.0716,1.0758,1.0708,1.0731,1.0714,1.0714,1.0712,1.0769,1.0771,1.0773,1.0774,0,1.1567,1.1529,1.149,1.1437,1.1404,1.1358,1.1307,1.1295,1.1195,1.1167,1.1123,1.1089,1.1021,1.0972,1.091,1.0864,1.0802,1.0791,1.0793,1.0815,1.0844,1.0826,1.0691,1.0788,1.0787,1.0785,1.0785,1.0784,1.1661,1.1651,1.1582,1.1541,1.1494,1.1448,1.143,1.1368,1.133,1.1269,1.1219,1.1179,1.1111,1.1021,1.0978,1.0944,1.0914,1.0919,1.0919,1.0921,1.0929,1.0852,1.0933,1.0932,1.0932,1.0931,1.0931,0,1.1767,1.1719,1.1682,1.1614,1.1581,1.1527,1.1469,1.1444,1.1409,1.1352,1.1311,1.1259,1.1211,1.1133,1.1079,1.1066,1.1036,1.1054,1.1053,1.1043,1.096,1.0962,1.1079,1.1079,1.1079,1.1079,1.1079,1.1079,1.1818,1.1798,1.1752,1.1707,1.1657,1.1618,1.1588,1.1545,1.1499,1.1445,1.1406,1.1356,1.1289,1.1229,1.1183,1.1161,1.1144,1.1171,1.114,1.1063,1.1049,1.1036,1.1037,1.1168,1.1169,1.1225,1.1226,1.1226]},{"header":{"parameterUnit":"m.s-1","parameterCategory":1,"la1":30.2991,"la2":30.254,"lo1":-89.0895,"lo2":-89.0444,"dy":0.0017,"dx":0.0017,"nx":28,"ny":28,"refTime":"2023-10-16T09:00:00:Z","depth":0,"parameterNumber":3,"parameterNumberName":"V-component_of_WINDS"},"data":[0,0,0,0,0,0,0,0,0,0,0,0,0,0,0,0,0,0,0,0,0,0,0,0,0,0,0,0,0,0,0,0,0,0,0,0,0,0,0,0,0,0,0,0,0,0,0,0,0,0,0,0,0,0,0,0,0,0,1.1802,1.1802,0,1.1773,1.1772,1.1772,1.1729,1.1729,1.1728,1.1727,1.1697,1.1696,1.1696,0,0,0,0,0,0,0,0,0,0,0,0,0,1.1819,1.1819,1.1802,1.1802,1.1801,1.1773,1.1772,1.1772,1.173,1.1729,1.1728,1.1727,1.1697,1.1696,1.1696,0,0,0,0,0,0,0,0,0,0,0,0,0,1.1803,1.1819,1.1802,1.1777,1.1774,1.1773,1.1772,1.1772,1.173,1.1729,1.1728,1.1727,1.1697,1.1697,1.1696,1.1717,0,0,1.1696,1.1696,0,0,0,0,0,0,0,0,1.1804,1.1802,1.1781,1.1778,1.1775,1.1753,1.1767,1.1753,1.173,1.1747,1.1727,1.1726,1.1716,1.1714,1.1711,1.1716,1.1714,1.1696,1.1696,1.1695,1.1695,0,0,0,0,0,0,0,1.1805,1.1803,1.179,1.178,1.1777,1.1766,1.1762,1.1764,1.1738,1.1745,1.1742,1.1739,1.1715,1.1712,1.171,1.1714,1.1696,1.1696,1.1695,1.1695,1.1731,1.1732,0,0,0,0,0,0,1.181,1.1804,1.1791,1.1789,1.1787,1.1767,1.1763,1.1762,1.1738,1.1733,1.174,1.1737,1.1713,1.1711,1.1709,1.173,1.1695,1.1695,1.1695,1.173,1.1731,1.1732,0,0,0,0,0,0,1.1811,1.1809,1.1792,1.1796,1.1793,1.1767,1.1767,1.1762,1.1759,1.1734,1.1729,1.1742,1.1712,1.1709,1.1715,1.1729,1.1695,1.1695,1.1729,1.173,1.1732,1.1774,0,0,0,0,0,0,1.1811,1.181,1.1818,1.1796,1.1793,1.18,1.1768,1.1762,1.1758,1.1754,1.1734,1.173,1.1711,1.1715,1.1715,1.1728,1.1695,1.1727,1.1729,1.1731,1.1771,1.1777,1.1782,0,0,0,0,0,1.1812,1.1832,1.1819,1.1817,1.1803,1.1801,1.1798,1.1776,1.176,1.1767,1.1751,1.1731,1.1727,1.1716,1.1715,1.1728,1.1726,1.1729,1.1731,1.1769,1.1776,1.1781,0,0,0,0,0,0,1.1856,1.1828,1.1814,1.1827,1.1816,1.1793,1.1803,1.1784,1.1778,1.1774,1.1746,1.1742,1.175,1.174,1.1728,1.1746,1.1723,1.1726,1.1753,1.1759,1.1764,1.1766,1.1695,0,0,0,0,0,1.1867,1.1868,1.1843,1.1858,1.1853,1.1829,1.1827,1.181,1.1798,1.1793,1.1777,1.1766,1.1761,1.176,1.1755,1.1769,1.1763,1.1777,1.1783,1.1787,1.1789,1.1794,1.1799,1.174,1.174,1.174,0,0,1.189,1.1875,1.1878,1.1866,1.1856,1.1856,1.1825,1.1828,1.1827,1.1793,1.1797,1.1785,1.177,1.1779,1.1783,1.1771,1.1804,1.179,1.1794,1.1794,1.1797,1.1803,1.1808,1.1742,1.1741,1.1741,0,0,1.1933,1.1922,1.1932,1.1922,1.1906,1.1889,1.1892,1.1871,1.1861,1.1865,1.1838,1.1837,1.1832,1.1821,1.1815,1.1851,1.1831,1.185,1.1877,1.1882,1.1887,1.1891,1.1902,1.1907,1.1853,1.1853,1.1853,0,1.1964,1.1964,1.1939,1.1942,1.1937,1.1906,1.1914,1.1906,1.1889,1.1886,1.1873,1.1863,1.1851,1.1857,1.1865,1.1862,1.1862,1.1853,1.1888,1.1892,1.1895,1.1906,1.191,1.1855,1.1855,1.1854,1.1854,0,1.2002,1.2002,1.2012,1.1996,1.1992,1.1998,1.1973,1.1971,1.1954,1.1939,1.1941,1.1925,1.1915,1.1915,1.1899,1.1918,1.1911,1.1894,1.187,1.1904,1.1913,1.1917,1.1858,1.1857,1.1857,1.1856,0,0,1.2073,1.2042,1.2046,1.2037,1.2017,1.2016,1.2019,1.201,1.2008,1.1998,1.1999,1.1994,1.1976,1.197,1.1952,1.1956,1.1983,1.1937,1.1937,1.1946,1.2001,1.2014,1.2019,1.197,1.1971,1.1971,1.2002,0,1.211,1.2116,1.2092,1.2103,1.2102,1.2071,1.2074,1.2061,1.2046,1.2042,1.2024,1.2021,1.1999,1.1994,1.1997,1.198,1.1994,1.1977,1.197,1.197,1.1974,1.2024,1.2038,1.2068,1.2005,1.2006,1.2006,0,1.2156,1.2147,1.2158,1.2134,1.2133,1.2136,1.2124,1.2121,1.2105,1.2093,1.2084,1.2063,1.2064,1.2041,1.2041,1.203,1.2025,1.2015,1.2016,1.2014,1.199,1.2023,1.2077,1.2082,1.2012,1.2012,1.2011,0,1.2205,1.2195,1.22,1.2194,1.2167,1.217,1.2159,1.2141,1.2136,1.2125,1.2121,1.2111,1.2105,1.2097,1.2072,1.2059,1.2074,1.205,1.2063,1.2064,1.2068,1.2068,1.2122,1.2066,1.2066,1.2066,1.2066,0,1.225,1.2257,1.2221,1.2224,1.2231,1.2203,1.221,1.2196,1.218,1.2179,1.2151,1.215,1.2118,1.2113,1.2094,1.2095,1.2093,1.2083,1.2077,1.2085,1.2086,1.2081,1.2078,1.2067,1.2067,1.2066,1.2066,0,1.2306,1.2283,1.2285,1.2259,1.2253,1.2259,1.2236,1.2236,1.2219,1.2217,1.2215,1.2187,1.2179,1.2154,1.214,1.2127,1.2134,1.2124,1.214,1.2136,1.215,1.2149,1.2202,1.2207,1.2149,1.215,1.2151,0,1.2336,1.2341,1.2315,1.2312,1.2302,1.2298,1.2292,1.2264,1.2258,1.2239,1.2242,1.2232,1.2222,1.2211,1.2189,1.2177,1.2167,1.2186,1.2165,1.2172,1.2166,1.2166,1.2165,1.2191,1.2192,1.2192,1.2193,0,1.2391,1.2379,1.2372,1.236,1.2354,1.2343,1.2331,1.233,1.2298,1.2294,1.2285,1.2278,1.2263,1.2253,1.2237,1.2224,1.2203,1.22,1.2202,1.2209,1.2217,1.2212,1.2151,1.2199,1.2198,1.2198,1.2197,1.2197,1.2435,1.2437,1.2418,1.2411,1.2398,1.2387,1.2386,1.2367,1.236,1.2345,1.2329,1.2322,1.2303,1.228,1.2268,1.2262,1.225,1.2254,1.2255,1.2256,1.2259,1.2219,1.2259,1.2259,1.2259,1.2258,1.2258,0,1.2487,1.2473,1.2467,1.245,1.2443,1.2424,1.2408,1.2404,1.2398,1.2383,1.2373,1.2362,1.2352,1.2328,1.2315,1.2314,1.2303,1.2311,1.2311,1.2307,1.227,1.2269,1.2319,1.2319,1.2319,1.2319,1.2319,1.2319,1.2514,1.2516,1.2501,1.2495,1.2481,1.2474,1.2467,1.2456,1.2443,1.2432,1.2423,1.2407,1.2387,1.2372,1.2361,1.2354,1.235,1.236,1.235,1.2316,1.231,1.2305,1.2304,1.236,1.236,1.2388,1.2388,1.2388]}]]